Voltar ao catálogo

ONEWEB-0551

AtivoComunicaçõesPO
NORAD 56053·PAYLOAD·🇬🇧 United Kingdom

Lançado Mar 26, 2023 de Satish Dhawan Space Centre

Loading…

Próximas Passagens (próximas 24 horas)

TLE

AtualizadoSource: CelesTrak SupGP

Época: Sep 14, 2026, 20:02 UTC

1 56053C 23043H   26257.83521250  .00002110  00000+0  56109-2 0  2572
2 56053  87.8976 241.3488 0001863  77.3326 322.4976 13.15543620    16

Acompanhe ONEWEB-0551 em tempo real com AllMySat

Download on the App Store